Miscellaneous Local Product
Issued by NWS Hastings, NE

Home | Current Version | Previous Version | Graphics & Text | Print | Product List | Glossary On
Versions: 1 2 3 4 5 6 7 8 9 10 11 12 13 14 15 16 17 18 19 20 21 22 23 24 25 26 27 28 29 30 31 32 33 34 35 36 37 38 39 40 41 42 43 44 45 46 47 48 49 50
715
AXUS43 KGID 181702
MISGRI

GID CWA HOURLY WEATHER ROUNDUP
NATIONAL WEATHER SERVICE HASTINGS NE
1100 AM CST THU JAN 18 2018

NOTE: "FAIR" INDICATES FEW OR NO CLOUDS BELOW 12,000 FEET WITH NO
SIGNIFICANT WEATHER AND/OR OBSTRUCTIONS TO VISIBILITY.

...SOUTH CENTRAL NEBRASKA...

CITY           SKY/WX    TMP DP  RH WIND       PRES   REMARKS
GRAND ISLAND   CLOUDY    34  23  64 SW14      30.03S WCI  25
KEARNEY        CLOUDY    31  23  72 SW9       30.05R WCI  23
HASTINGS       CLOUDY    32  21  64 SW9       30.05F WCI  24
ORD            CLOUDY    31  23  72 CALM      29.99S
YORK           CLOUDY    32  23  69 SW15      30.04F WCI  22
AURORA         CLOUDY    31  21  66 SW14      30.02F WCI  21
LEXINGTON      CLOUDY    32  24  72 NW3       30.05R
HOLDREGE       CLOUDY    35  25  67 W13       30.05S WCI  26
HEBRON         CLOUDY    26  15  62 SW7       30.12S WCI  19

...NEBRASKA PANHANDLE...

CITY           SKY/WX    TMP DP  RH WIND       PRES   REMARKS
CHADRON        CLOUDY    38  26  62 W6        29.99R WCI  33
ALLIANCE       PTSUNNY   32  25  75 W7        30.00S WCI  26
SCOTTSBLUFF    MOSUNNY   39  26  59 NW9       30.03R WCI  33
SIDNEY         PTSUNNY   46  24  42 W13       30.04F

...WESTERN AND NORTH CENTRAL NEBRASKA...

CITY           SKY/WX    TMP DP  RH WIND       PRES   REMARKS
VALENTINE      CLOUDY    35  27  72 SW9       29.93F WCI  28
AINSWORTH      CLOUDY    39  28  65 W7        29.92F WCI  34
ONEILL         CLOUDY    37  25  61 SW7       29.95F WCI  32
BROKEN BOW     CLOUDY    36  24  62 S5        29.99S WCI  32
IMPERIAL       CLOUDY    38  24  57 W8        30.06F WCI  32
NORTH PLATTE   CLOUDY    35  25  66 W8        30.03F WCI  29
MCCOOK         PTSUNNY   33  23  66 W10       30.08R WCI  25

...EASTERN NEBRASKA...

CITY           SKY/WX    TMP DP  RH WIND       PRES   REMARKS
NORFOLK        CLOUDY    32  21  64 S10       29.98S WCI  24
SO SIOUX CITY  SUNNY     27  19  72 SE10      30.02F WCI  17
TEKAMAH        SUNNY     28  16  60 S14       30.06F WCI  17
COLUMBUS       SUNNY     33  20  58 S8        30.04F WCI  26
ALBION         CLOUDY    35  22  61 W8        29.99S WCI  28
OMAHA EPPLEY   CLOUDY    26  13  57 S8        30.10S WCI  18
OFFUTT AFB     CLOUDY    27  13  55 S6        30.10S WCI  20
MILLARD        CLOUDY    30  14  51 SW6       30.10S WCI  24
LINCOLN        SUNNY     29  13  51 SW13      30.11R WCI  19
NEBRASKA CITY  CLOUDY    27  15  61 SW9       30.12R WCI  18
BEATRICE       CLOUDY    27  15  60 SW13      30.11S WCI  16
FALLS CITY     CLOUDY    29  13  51 VRB5      30.15R WCI  24

...NORTHERN KANSAS...

CITY           SKY/WX    TMP DP  RH WIND       PRES   REMARKS
GOODLAND       PTSUNNY   53  12  19 W14       30.09R
HILL CITY      NOT AVBL
NORTON         SUNNY     37  19  48 SW8       30.08S WCI  31
PHILLIPSBURG   SUNNY     36  21  55 CALM      30.11S
SMITH CENTER     N/A     28  18  64 SW6       30.12S WCI  22
BELOIT         SUNNY     28  16  59 CALM      30.15S
HAYS           CLOUDY    35  18  49 SW9       30.12F WCI  28
RUSSELL        SUNNY     35  22  58 SW10      30.11F WCI  27
CONCORDIA      CLOUDY    28  16  60 SW9       30.13R WCI  19
SALINA         CLOUDY    32  17  54 S13       30.18S WCI  22
TOPEKA         SUNNY     30  14  51 SW9G20    30.23F WCI  22



USA.gov is the U.S. government's official web portal to all federal, state and local government web resources and services.